Regional Weather Roundup
Issued by NWS Newport/Morehead, NC

Current Version | Previous Version | Graphics & Text | Print | Product List | Glossary Off
Versions: 1 2 3 4 5 6 7 8 9 10 11 12 13 14 15 16 17 18 19 20 21 22 23 24 25 26 27 28 29 30 31 32 33 34 35 36 37 38 39 40 41 42 43 44 45 46 47 48 49 50

000
ASUS42 KMHX 070012
RWRMHX
WEATHER ROUNDUP FOR EASTERN NORTH CAROLINA
NATIONAL WEATHER SERVICE NEWPORT/MOREHEAD CITY NC
700 PM EST FRI MAR 06 2015

NOTE: "FAIR" INDICATES FEW OR NO CLOUDS BELOW 12,000 FEET
WITH NO SIGNIFICANT WEATHER AND/OR OBSTRUCTIONS TO VISIBILITY

NCZ015>017-031-032-045>047-102-103-070100-
NORTH COAST

CITY           SKY/WX    TMP DP  RH WIND       PRES   REMARKS
EDENTON        PTCLDY    30  14  51 NE5       30.45R
ELIZABETH CITY PTCLDY    27  18  69 N10       30.45S WCI  17
KITTY HAWK     CLOUDY    29  24  83 N10G20    30.41S WCI  19
MANTEO         CLOUDY    29  24  82 N14G21    30.43S WCI  18

$$

NCZ045>047-081-094-103-104-070100-
CENTRAL COAST

CITY           SKY/WX    TMP DP  RH WIND       PRES   REMARKS
FRISCO         CLOUDY    30  28  92 N12G24    30.40R
SWANQUARTER      N/A    N/A N/A N/A CALM      30.39S

$$

NCZ095-097-098-100-101-070100-
SOUTHERN COAST

CITY           SKY/WX    TMP DP  RH WIND       PRES   REMARKS
BEAUFORT       CLOUDY    35  21  56 N13       30.41R
CEDAR ISLAND     N/A     34 N/A N/A N16G23    30.44S
JACKSONVILLE   CLEAR     37  21  52 N9        30.41R
PINEY ISLAND     N/A    N/A N/A N/A MISG      30.41R
WILMINGTON     PTCLDY    38  22  52 N9        30.42R


$$

NCZ011>013-027>030-043-044-078>080-089-090>093-098-070100-
COASTAL PLAIN

CITY           SKY/WX    TMP DP  RH WIND       PRES   REMARKS
AHOSKIE        CLEAR     28  17  61 CALM      30.45S
CLINTON        CLEAR     34  20  56 CALM      30.44R
ELIZABETHTOWN  PTCLDY    36  20  51 CALM      30.43R
GOLDSBORO      CLEAR     33  19  54 N5        30.42R
GREENVILLE     CLEAR     32  19  59 N5        30.44R
HAVELOCK       MOCLDY    36  19  50 NE13      30.42R
KENANSVILLE    CLEAR     33  19  56 N3        30.44S
KINSTON        FAIR      34  19  55 N5        30.45R
NEW BERN       CLEAR     35  19  52 NE8       30.43R
RICHLANDS      CLEAR     34  19  55 NW3       30.43R
ROCKY MOUNT    CLEAR     30  16  56 CALM      30.44R
WASHINGTON     CLEAR     32  19  58 NE3       30.44R
WHITEVILLE     PTCLDY    38  19  46 N3        30.42R

$$

AMZ130-135-150-152-154-156-158-170-250-252-270-ANZ085-086-088-633-658-670-070100-
MARINE OBSERVATIONS

STATION/POSITION TIME  TEMP    WIND        PRES    WAVE   SWELL
                       AIR SEA DIR/SP/G            HT/PER HT/PER
                 (UTC) (F)     (DEG/KT/KT) (MB)    (FT/S) (FT/S)
CHESAPEAKE LIGHT 2300   26      10/ 14/ 15 1031.5
64 E VA BEACH    2350   35 51  360/ 19/ 25 1028.5    7/ 9   5/ 9
DUCK             2300   28 35  360/ 17/ 23 1029.3
2 E DUCK         2311      35                N/A     6/ 8   2/11
10 NE DUCK       NOT AVBL
OREGON INLET     2312          340/ 12/ 22 1029.7
HATTERAS CG      2300   32 42  360/ 25/ 29 1029.0
CAPE LOOKOUT     0000          360/ 16/ 19 1029.4
BEAUFORT LAB     2300   35 47   10/ 13/ 16 1028.3
27 SE WRIGHTSVLE NOT AVBL
5 SE WRIGHTSVLE  NOT AVBL
225 S CAPE HAT   2350   64 72   30/ 16/ 19 1022.3    9/ 9   7/ 9
41 SE CHARLESTON 2350   45 66   10/ 17/ 21 1028.5    8/ 8

$$


USA.gov is the U.S. government's official web portal to all federal, state and local government web resources and services.